Flag for U.S.A. Weather past 2 weeks in Brockton, Massachusetts, U.S.A.

Now
60 °F

Cool.


Feels Like: 60 °F
Forecast: 58 / 79 °F
Wind: 6 mph from Northwest

Location: East Milton

Current Time: Jul 30, 2014 at 5:25:40 AM

Latest Report: Jul 30, 2014 at 4:54 AM


Visibility: N/A

Pressure: 29.99 "Hg

Humidity: 80%

Dew point: 54 °F

Location of BrocktonLocation

Historic Weather in Brockton — Graph

°F

Brockton temperature yesterday

Maximum temperature yesterday: 77 °F (at 2:54 PM)
Minimum temperature yesterday: 60 °F (at 4:54 AM)
Average temperature yesterday: 67 °F

Past Weeks' High & Low Weather Summary

 TemperatureHumidityPressure
High88 °F (Jul 23, 1:54 PM)100% (Jul 15, 3:54 AM)30.30 "Hg (Jul 15, 3:54 AM)
Low57 °F (Jul 25, 5:54 AM)39% (Jul 18, 3:54 PM)29.48 "Hg (Jul 28, 5:54 PM)
Average70 °F79%29.97 "Hg
* Reported Jul 15 3:54 AM — Jul 30 3:54 AM, Brockton, Weather by CustomWeather, © 2014

Note: Actual official high and low records may vary slightly from our data, if they occured in-between our weather recording intervals... More about our weather records

Advertising

Brockton weather history for previous 24 hours

 ConditionsComfort  
Time TempWeatherWind HumidityBarometerVisibility
3:54 AM
Jul 30
60 °FCool.8 mph80%29.98 "HgN/A
2:54 AM63 °FMild.8 mph70%29.97 "HgN/A
1:54 AM61 °FCool.6 mph78%29.98 "HgN/A
12:54 AM63 °FMild.7 mph73%29.98 "HgN/A
11:54 PM
Jul 29
63 °FMild.9 mph73%29.98 "HgN/A
10:54 PM64 °FMild.9 mph70%29.96 "HgN/A
9:54 PM65 °FMild.9 mph70%29.96 "HgN/A
8:54 PM67 °FMild.7 mph68%29.94 "HgN/A
7:54 PM68 °FMild.9 mph63%29.93 "HgN/A
6:54 PM70 °FMild.12 mph61%29.92 "HgN/A
5:54 PM73 °FMild.12 mph55%29.90 "HgN/A
4:54 PM75 °FMild.12 mph50%29.88 "HgN/A
3:54 PM74 °FMild.7 mph52%29.87 "HgN/A
2:54 PM77 °FWarm.7 mph50%29.85 "HgN/A
1:54 PM74 °FMild.12 mph57%29.84 "HgN/A
12:54 PM73 °FMild.9 mph59%29.83 "HgN/A
11:54 AM73 °FMild.7 mph62%29.82 "HgN/A
10:54 AM71 °FMild.9 mph59%29.82 "HgN/A
9:54 AM69 °FMild.8 mph66%29.80 "HgN/A
8:54 AM66 °FMild.16 mph68%29.79 "HgN/A
7:54 AM64 °FMild.10 mph75%29.78 "HgN/A
6:54 AM61 °FCool.13 mph83%29.75 "HgN/A
5:54 AM60 °FCool.13 mph90%29.73 "HgN/A
Weather by CustomWeather, © 2014

See weather overviewHow to use our weather pages